| time (UTC) | temp C | wind direction | speed KPH | gust KPH | rain 1hr cm | rain 24hr cm | rain mn cm | humidity % | barometer mb |
| 20260505101521 | 16 | 173 | 0.0 | 3.2 | 0.00 | 0.00 | 0.00 | 74 | 1007.6 |
| 20260505100518 | 17 | 182 | 1.6 | 6.4 | 0.00 | 0.00 | 0.00 | 73 | 1007.4 |
| 20260505095520 | 17 | 180 | 1.6 | 4.8 | 0.00 | 0.00 | 0.00 | 72 | 1007.4 |
| 20260505094519 | 17 | 184 | 1.6 | 6.4 | 0.00 | 0.00 | 0.00 | 71 | 1007.4 |
| 20260505093519 | 17 | 177 | 1.6 | 8.0 | 0.00 | 0.00 | 0.00 | 71 | 1007.2 |
| 20260505092520 | 17 | 187 | 1.6 | 4.8 | 0.00 | 0.00 | 0.00 | 70 | 1007.1 |
| 20260505091519 | 17 | 203 | 1.6 | 4.8 | 0.00 | 0.00 | 0.00 | 70 | 1007.2 |
| 20260505090520 | 17 | 185 | 1.6 | 9.7 | 0.00 | 0.00 | 0.00 | 69 | 1007.1 |
| 20260505085519 | 17 | 177 | 3.2 | 9.7 | 0.00 | 0.00 | 0.00 | 68 | 1007.0 |
| 20260505084517 | 17 | 177 | 3.2 | 12.9 | 0.00 | 0.00 | 0.00 | 68 | 1006.7 |
| 20260505083519 | 18 | 197 | 1.6 | 4.8 | 0.00 | 0.00 | 0.00 | 67 | 1006.5 |
| 20260505082519 | 18 | 184 | 3.2 | 8.0 | 0.00 | 0.00 | 0.00 | 67 | 1006.4 |
| 20260505081520 | 18 | 188 | 3.2 | 12.9 | 0.00 | 0.00 | 0.00 | 67 | 1006.2 |
| 20260505080517 | 18 | 198 | 3.2 | 8.0 | 0.00 | 0.00 | 0.00 | 66 | 1006.0 |
| 20260505075518 | 18 | 188 | 4.8 | 12.9 | 0.00 | 0.00 | 0.00 | 66 | 1006.0 |
| 20260505074518 | 18 | 198 | 3.2 | 12.9 | 0.00 | 0.00 | 0.00 | 66 | 1006.0 |
| 20260505073521 | 18 | 198 | 3.2 | 11.3 | 0.00 | 0.00 | 0.00 | 67 | 1006.0 |
| 20260505072522 | 18 | 186 | 3.2 | 9.7 | 0.00 | 0.00 | 0.00 | 66 | 1005.8 |
| 20260505071518 | 18 | 198 | 3.2 | 11.3 | 0.00 | 0.00 | 0.00 | 67 | 1005.8 |
| 20260505070519 | 18 | 190 | 3.2 | 9.7 | 0.00 | 0.00 | 0.00 | 67 | 1005.8 |
| 20260505065518 | 18 | 188 | 1.6 | 8.0 | 0.00 | 0.00 | 0.00 | 67 | 1005.8 |
| 20260505064518 | 18 | 188 | 1.6 | 9.7 | 0.00 | 0.00 | 0.00 | 67 | 1005.7 |
| 20260505063519 | 18 | 182 | 3.2 | 16.1 | 0.00 | 0.00 | 0.00 | 68 | 1005.6 |
| 20260505062520 | 18 | 174 | 1.6 | 6.4 | 0.00 | 0.00 | 0.00 | 68 | 1005.7 |
| 20260505061521 | 18 | 186 | 3.2 | 8.0 | 0.00 | 0.00 | 0.00 | 67 | 1005.7 |
| 20260505060520 | 18 | 169 | 1.6 | 6.4 | 0.00 | 0.00 | 0.00 | 67 | 1005.8 |
| 20260505055520 | 18 | 190 | 3.2 | 8.0 | 0.00 | 0.00 | 0.00 | 67 | 1005.9 |
| 20260505054520 | 18 | 174 | 3.2 | 8.0 | 0.00 | 0.00 | 0.00 | 67 | 1006.0 |
| 20260505053521 | 18 | 193 | 1.6 | 9.7 | 0.00 | 0.00 | 0.00 | 66 | 1006.0 |
| 20260505052520 | 18 | 152 | 1.6 | 6.4 | 0.00 | 0.00 | 0.00 | 67 | 1006.2 |
| 20260505051517 | 18 | 177 | 1.6 | 6.4 | 0.00 | 0.00 | 0.00 | 67 | 1006.2 |
| 20260505050517 | 19 | 182 | 1.6 | 6.4 | 0.00 | 0.00 | 0.00 | 67 | 1006.3 |
| 20260505041519 | 19 | 198 | 1.6 | 8.0 | 0.00 | 0.00 | 0.00 | 67 | 1006.3 |
| 20260505040521 | 18 | 197 | 3.2 | 11.3 | 0.00 | 0.00 | 0.00 | 68 | 1006.2 |
| 20260505035519 | 18 | 185 | 1.6 | 4.8 | 0.00 | 0.00 | 0.00 | 68 | 1006.2 |
| 20260505034519 | 18 | 161 | 0.0 | 3.2 | 0.00 | 0.00 | 0.00 | 69 | 1006.2 |
| 20260505033519 | 18 | 172 | 1.6 | 3.2 | 0.00 | 0.00 | 0.00 | 70 | 1006.1 |
| 20260505032519 | 18 | 189 | 0.0 | 4.8 | 0.00 | 0.00 | 0.00 | 71 | 1006.2 |
| 20260505031519 | 17 | 186 | 0.0 | 3.2 | 0.00 | 0.00 | 0.00 | 73 | 1006.2 |
| 20260505030519 | 17 | 122 | 0.0 | 3.2 | 0.00 | 0.00 | 0.00 | 75 | 1006.1 |
| 20260505025520 | 17 | 121 | 0.0 | 1.6 | 0.00 | 0.00 | 0.00 | 76 | 1006.1 |
| 20260505024523 | 17 | 135 | 0.0 | 3.2 | 0.00 | 0.00 | 0.00 | 77 | 1006.1 |
| 20260505023521 | 17 | 42 | 0.0 | 1.6 | 0.00 | 0.00 | 0.00 | 76 | 1006.1 |
| 20260505022518 | 17 | 0.0 | 0.0 | 0.00 | 0.00 | 0.00 | 75 | 1006.1 | |
| 20260505021520 | 17 | 0.0 | 0.0 | 0.00 | 0.00 | 0.00 | 76 | 1006.0 | |
| 20260505020520 | 17 | 128 | 0.0 | 4.8 | 0.00 | 0.00 | 0.00 | 75 | 1006.0 |
| 20260505015522 | 17 | 119 | 1.6 | 4.8 | 0.00 | 0.00 | 0.00 | 75 | 1005.9 |
| 20260505014518 | 18 | 125 | 0.0 | 3.2 | 0.00 | 0.00 | 0.00 | 74 | 1005.9 |
| 20260505013518 | 18 | 130 | 0.0 | 4.8 | 0.00 | 0.00 | 0.00 | 73 | 1005.7 |
| 20260505012518 | 18 | 105 | 0.0 | 3.2 | 0.00 | 0.00 | 0.00 | 73 | 1005.6 |
| 20260505011518 | 18 | 105 | 1.6 | 4.8 | 0.00 | 0.00 | 0.00 | 72 | 1005.5 |
| 20260505010518 | 18 | 95 | 0.0 | 4.8 | 0.00 | 0.00 | 0.00 | 71 | 1005.5 |
| 20260505005519 | 18 | 139 | 0.0 | 4.8 | 0.00 | 0.00 | 0.00 | 70 | 1005.5 |
| 20260505004520 | 19 | 0.0 | 0.0 | 0.00 | 0.00 | 0.00 | 68 | 1005.4 | |
| 20260505003519 | 20 | 0.0 | 0.0 | 0.00 | 0.00 | 0.00 | 66 | 1005.4 | |
| 20260505002517 | 20 | 171 | 0.0 | 3.2 | 0.00 | 0.00 | 0.00 | 64 | 1005.4 |
| 20260505001521 | 21 | 160 | 0.0 | 3.2 | 0.00 | 0.00 | 0.00 | 62 | 1005.3 |
| 20260505000519 | 21 | 173 | 1.6 | 6.4 | 0.00 | 0.00 | 0.00 | 61 | 1005.3 |
| 20260504235520 | 21 | 173 | 1.6 | 4.8 | 0.00 | 0.00 | 0.00 | 61 | 1005.3 |
| 20260504234521 | 21 | 155 | 3.2 | 6.4 | 0.00 | 0.00 | 0.00 | 60 | 1005.4 |
| 20260504233517 | 21 | 168 | 3.2 | 9.7 | 0.00 | 0.00 | 0.00 | 60 | 1005.4 |
| 20260504232521 | 21 | 193 | 3.2 | 8.0 | 0.00 | 0.00 | 0.00 | 60 | 1005.4 |
| 20260504231522 | 21 | 185 | 4.8 | 16.1 | 0.00 | 0.00 | 0.00 | 60 | 1005.6 |
| 20260504230521 | 21 | 187 | 3.2 | 6.4 | 0.00 | 0.00 | 0.00 | 60 | 1005.7 |
| 20260504225519 | 21 | 183 | 3.2 | 9.7 | 0.00 | 0.00 | 0.00 | 60 | 1005.9 |
| 20260504224519 | 21 | 169 | 1.6 | 8.0 | 0.00 | 0.00 | 0.00 | 62 | 1006.1 |
| 20260504223518 | 21 | 182 | 3.2 | 9.7 | 0.00 | 0.00 | 0.00 | 62 | 1006.1 |
| 20260504222522 | 20 | 191 | 3.2 | 11.3 | 0.00 | 0.00 | 0.00 | 63 | 1006.2 |
| 20260504221519 | 20 | 179 | 1.6 | 4.8 | 0.00 | 0.00 | 0.00 | 64 | 1006.2 |
| 20260504220519 | 21 | 182 | 1.6 | 8.0 | 0.00 | 0.00 | 0.00 | 63 | 1006.4 |
| 20260504215519 | 21 | 178 | 4.8 | 11.3 | 0.00 | 0.00 | 0.00 | 63 | 1006.4 |
| 20260504214519 | 21 | 179 | 3.2 | 12.9 | 0.00 | 0.00 | 0.00 | 62 | 1006.4 |
| 20260504213516 | 21 | 182 | 4.8 | 14.5 | 0.00 | 0.00 | 0.00 | 62 | 1006.5 |
| 20260504212451 | 21 | 199 | 3.2 | 8.0 | 0.00 | 0.00 | 0.00 | 62 | 1006.3 |
| 20260504211518 | 20 | 177 | 3.2 | 9.7 | 0.00 | 0.00 | 0.00 | 64 | 1006.0 |
| 20260504210517 | 20 | 167 | 3.2 | 8.0 | 0.00 | 0.00 | 0.00 | 63 | 1006.1 |
| 20260504205526 | 20 | 178 | 3.2 | 9.7 | 0.00 | 0.00 | 0.00 | 65 | 1006.1 |
| 20260504204522 | 21 | 189 | 3.2 | 11.3 | 0.00 | 0.00 | 0.00 | 65 | 1006.6 |
| 20260504203522 | 21 | 191 | 6.4 | 14.5 | 0.00 | 0.00 | 0.00 | 62 | 1006.8 |
| 20260504202518 | 21 | 194 | 4.8 | 12.9 | 0.00 | 0.00 | 0.00 | 62 | 1007.1 |
| 20260504201519 | 21 | 185 | 4.8 | 19.3 | 0.00 | 0.00 | 0.00 | 61 | 1007.3 |
| 20260504200518 | 22 | 191 | 8.0 | 25.7 | 0.00 | 0.00 | 0.00 | 59 | 1007.2 |
| 20260504195518 | 23 | 184 | 8.0 | 16.1 | 0.00 | 0.00 | 0.00 | 58 | 1006.9 |
| 20260504194518 | 22 | 204 | 4.8 | 11.3 | 0.00 | 0.00 | 0.00 | 58 | 1007.0 |
| 20260504193521 | 22 | 200 | 4.8 | 9.7 | 0.00 | 0.00 | 0.00 | 58 | 1007.0 |
| 20260504192519 | 23 | 171 | 6.4 | 20.9 | 0.00 | 0.00 | 0.00 | 57 | 1006.7 |
| 20260504191519 | 23 | 172 | 4.8 | 16.1 | 0.00 | 0.00 | 0.00 | 58 | 1006.7 |
| 20260504190519 | 22 | 180 | 3.2 | 11.3 | 0.00 | 0.00 | 0.00 | 59 | 1006.7 |
| 20260504185519 | 22 | 191 | 4.8 | 12.9 | 0.00 | 0.00 | 0.00 | 58 | 1006.8 |
| 20260504184517 | 22 | 166 | 6.4 | 14.5 | 0.00 | 0.00 | 0.00 | 59 | 1006.9 |
| 20260504183517 | 21 | 177 | 3.2 | 8.0 | 0.00 | 0.00 | 0.00 | 60 | 1007.1 |
| 20260504182520 | 21 | 188 | 6.4 | 17.7 | 0.00 | 0.00 | 0.00 | 59 | 1007.1 |
| 20260504181521 | 22 | 174 | 4.8 | 14.5 | 0.00 | 0.00 | 0.00 | 60 | 1007.1 |
| 20260504180520 | 22 | 186 | 4.8 | 16.1 | 0.00 | 0.00 | 0.00 | 59 | 1007.1 |
| 20260504175517 | 22 | 170 | 6.4 | 11.3 | 0.00 | 0.00 | 0.00 | 58 | 1007.2 |
| 20260504174517 | 22 | 189 | 4.8 | 12.9 | 0.00 | 0.00 | 0.00 | 60 | 1007.3 |
| 20260504173517 | 21 | 175 | 6.4 | 14.5 | 0.00 | 0.00 | 0.00 | 60 | 1007.4 |
| 20260504172517 | 21 | 170 | 4.8 | 12.9 | 0.00 | 0.00 | 0.00 | 61 | 1007.4 |
| 20260504171518 | 21 | 163 | 4.8 | 11.3 | 0.00 | 0.00 | 0.00 | 62 | 1007.5 |
| 20260504170518 | 20 | 170 | 4.8 | 12.9 | 0.00 | 0.00 | 0.00 | 63 | 1007.7 |
| 20260504150517 | 16 | 192 | 3.2 | 9.7 | 0.00 | 0.00 | 0.00 | 67 | 1009.0 |
| 20260504140518 | 15 | 177 | 4.8 | 9.7 | 0.00 | 0.00 | 0.00 | 68 | 1009.6 |
| 20260504130521 | 13 | 189 | 1.6 | 8.0 | 0.00 | 0.00 | 0.00 | 67 | 1010.0 |
| 20260504110518 | 8 | 96 | 0.0 | 1.6 | 0.00 | 0.00 | 0.00 | 79 | 1009.8 |